Starlink 11247

operational
NORAD ID: 60720 Int'l Des: 2024-152 Owner: SPXS Country: US Constellation: starlink
LEOCIRCULAR

Über Starlink 11247

Beschreibung wird geladen...

Live-Position

3D-Globus wird geladen...

Nächste Überflüge

Höhenverlauf

Altitude vs Time

uPlot chart will show altitude changes over time

Zweizeiliger Elementsatz

1 60720U 24152A 26037.82842599 -.00003470 00000-0 -23806-4 0 9993
2 60720 53.1579 268.7125 0001041 58.7317 301.3803 15.69697524 83985
Epoch: 6. Feb. 2026 • Age: 8 hours

Aktueller Status

Höhe 362.2 km
Geschwindigkeit 7.70 km/s
Subsatellitenpunkt 37.64°N, 108.9°E
Startdatum 28. Aug. 2024
Alter 1.4 years
Typ internet

Technische Details

Klassifizierung Payload
Masse 960.00 kg
Trockenmasse 910.00 kg
Gesamtmasse 960.00 kg
Länge 0.30 m
Durchmesser 4.10 m
Spannweite 29.00 m
Form Box + pan
Hersteller SPXS
Bus-Typ Starlink V2MD
Phasenstatus In Orbit
Besitzer/Staat SPXS/US

Große Konstellationen

Loading constellations...